QPF
0.01 0.01 0.01 0.00 0.01 0.01 0.01 0.00 0.00 0.00 0.01 0.01 0.01 0.01 0.01 0.01 0.01 0.01 0.01 0.01 0.01 0.01 0.01 0.01 0.01 0.01 0.01 0.01 0.01 0.01 0.01 0.01 0.01 0.01 0.01 0.01 0.01 0.02 0.03 0.03 0.04 0.05 0.07
0.01 0.00 0.00 0.01 0.01 0.01 0.01 0.00 0.00 0.01 0.01 0.01 0.01 0.01 0.01 0.01 0.01 0.01 0.01 0.01 0.01 0.02 0.01 0.01 0.01 0.01 0.01 0.02 0.02 0.01 0.01 0.01 0.01 0.01 0.02 0.02 0.01 0.02 0.03 0.03 0.04 0.08 0.09
0.01 0.01 0.00 0.01 0.01 0.01 0.01 0.01 0.01 0.01 0.02 0.03 0.02 0.02 0.02 0.02 0.02 0.02 0.02 0.02 0.02 0.03 0.02 0.02 0.02 0.02 0.02 0.02 0.03 0.01 0.02 0.01 0.01 0.02 0.03 0.03 0.02 0.03 0.04 0.03 0.04 0.05 0.05
0.01 0.01 0.00 0.01 0.01 0.01 0.01 0.01 0.01 0.01 0.02 0.03 0.03 0.03 0.03 0.04 0.04 0.04 0.03 0.03 0.04 0.04 0.04 0.04 0.02 0.03 0.03 0.03 0.03 0.02 0.03 0.02 0.03 0.03 0.03 0.04 0.03 0.04 0.06 0.06 0.04 0.04 0.04
0.02 0.02 0.01 0.01 0.01 0.01 0.01 0.02 0.01 0.01 0.01 0.02 0.03 0.04 0.05 0.05 0.06 0.06 0.05 0.05 0.05 0.06 0.05 0.05 0.05 0.05 0.04 0.04 0.05 0.03 0.04 0.03 0.03 0.04 0.04 0.05 0.05 0.05 0.07 0.08 0.05 0.04 0.04
0.08 0.05 0.02 0.02 0.01 0.01 0.02 0.02 0.02 0.02 0.01 0.02 0.02 0.03 0.04 0.05 0.06 0.07 0.07 0.06 0.06 0.06 0.06 0.05 0.05 0.07 0.07 0.06 0.06 0.05 0.05 0.04 0.04 0.04 0.05 0.05 0.06 0.05 0.06 0.06 0.06 0.04 0.03
0.10 0.12 0.03 0.02 0.02 0.02 0.02 0.02 0.03 0.02 0.02 0.03 0.03 0.03 0.03 0.04 0.05 0.07 0.07 0.06 0.07 0.07 0.07 0.06 0.06 0.09 0.12 0.10 0.08 0.06 0.05 0.05 0.04 0.03 0.05 0.03 0.03 0.04 0.07 0.06 0.06 0.05 0.03
0.07 0.10 0.03 0.02 0.03 0.03 0.02 0.02 0.03 0.04 0.04 0.04 0.03 0.03 0.03 0.04 0.05 0.06 0.06 0.06 0.06 0.06 0.06 0.06 0.06 0.07 0.12 0.18 0.14 0.08 0.05 0.04 0.04 0.03 0.04 0.03 0.03 0.05 0.07 0.07 0.06 0.06 0.03
0.06 0.06 0.03 0.03 0.03 0.03 0.03 0.03 0.04 0.04 0.04 0.03 0.03 0.03 0.04 0.04 0.04 0.05 0.06 0.07 0.07 0.07 0.06 0.06 0.07 0.08 0.09 0.16 0.19 0.12 0.06 0.05 0.03 0.05 0.06 0.03 0.03 0.05 0.05 0.05 0.05 0.04 0.03
0.14 0.09 0.08 0.07 0.07 0.06 0.05 0.04 0.04 0.04 0.03 0.03 0.04 0.04 0.05 0.05 0.04 0.05 0.05 0.06 0.06 0.06 0.06 0.06 0.08 0.11 0.09 0.13 0.18 0.16 0.08 0.06 0.04 0.05 0.03 0.03 0.03 0.04 0.03 0.03 0.03 0.02 0.02
0.19 0.13 0.10 0.12 0.11 0.09 0.08 0.05 0.05 0.04 0.05 0.06 0.07 0.06 0.06 0.07 0.07 0.07 0.06 0.07 0.05 0.05 0.06 0.06 0.08 0.09 0.08 0.11 0.13 0.14 0.09 0.05 0.03 0.04 0.03 0.04 0.04 0.05 0.04 0.03 0.03 0.02 0.02
0.17 0.13 0.10 0.11 0.12 0.11 0.09 0.10 0.10 0.08 0.07 0.08 0.08 0.09 0.10 0.10 0.08 0.07 0.08 0.10 0.07 0.05 0.05 0.06 0.06 0.07 0.08 0.08 0.09 0.10 0.08 0.05 0.05 0.05 0.04 0.04 0.04 0.04 0.04 0.04 0.04 0.02 0.02
0.09 0.12 0.11 0.09 0.12 0.14 0.15 0.16 0.13 0.12 0.10 0.10 0.10 0.10 0.11 0.09 0.07 0.07 0.08 0.06 0.05 0.06 0.05 0.05 0.05 0.05 0.06 0.06 0.07 0.08 0.06 0.06 0.06 0.04 0.05 0.04 0.04 0.05 0.05 0.05 0.05 0.04 0.03
0.06 0.09 0.10 0.08 0.10 0.16 0.19 0.20 0.17 0.12 0.09 0.09 0.10 0.09 0.11 0.10 0.07 0.07 0.08 0.07 0.07 0.06 0.06 0.06 0.06 0.05 0.05 0.04 0.05 0.05 0.06 0.06 0.06 0.06 0.05 0.05 0.05 0.05 0.05 0.05 0.04 0.05 0.05
0.05 0.07 0.11 0.10 0.12 0.16 0.19 0.17 0.14 0.11 0.09 0.09 0.09 0.10 0.11 0.09 0.06 0.06 0.07 0.07 0.06 0.07 0.07 0.05 0.05 0.06 0.05 0.05 0.06 0.06 0.07 0.08 0.08 0.09 0.07 0.05 0.04 0.04 0.04 0.04 0.04 0.04 0.04
0.03 0.05 0.09 0.10 0.10 0.13 0.18 0.17 0.10 0.08 0.10 0.11 0.09 0.09 0.09 0.08 0.05 0.06 0.07 0.07 0.06 0.07 0.07 0.05 0.05 0.07 0.07 0.06 0.07 0.07 0.08 0.09 0.08 0.08 0.08 0.06 0.04 0.03 0.03 0.03 0.03 0.04 0.04
0.04 0.04 0.06 0.07 0.06 0.07 0.13 0.16 0.14 0.10 0.10 0.10 0.08 0.07 0.07 0.07 0.07 0.07 0.07 0.07 0.06 0.06 0.05 0.05 0.06 0.07 0.07 0.06 0.06 0.08 0.09 0.09 0.10 0.09 0.08 0.06 0.05 0.04 0.03 0.02 0.02 0.03 0.03
0.04 0.05 0.05 0.05 0.04 0.04 0.07 0.06 0.05 0.07 0.08 0.08 0.07 0.06 0.05 0.06 0.07 0.08 0.06 0.05 0.06 0.05 0.05 0.05 0.06 0.07 0.07 0.06 0.07 0.08 0.09 0.10 0.08 0.10 0.08 0.06 0.05 0.04 0.04 0.04 0.04 0.03 0.03
0.05 0.06 0.06 0.07 0.06 0.06 0.06 0.05 0.03 0.04 0.07 0.07 0.06 0.05 0.04 0.05 0.05 0.05 0.04 0.05 0.06 0.06 0.05 0.04 0.06 0.07 0.07 0.07 0.06 0.07 0.09 0.09 0.08 0.07 0.06 0.05 0.04 0.03 0.03 0.04 0.06 0.05 0.04
0.04 0.06 0.07 0.08 0.10 0.10 0.08 0.06 0.04 0.03 0.04 0.06 0.06 0.04 0.03 0.03 0.03 0.04 0.04 0.05 0.06 0.06 0.06 0.06 0.07 0.09 0.09 0.09 0.08 0.08 0.09 0.09 0.07 0.05 0.04 0.03 0.03 0.02 0.02 0.03 0.05 0.05 0.04
0.03 0.04 0.04 0.08 0.09 0.08 0.08 0.06 0.04 0.04 0.03 0.04 0.05 0.04 0.03 0.03 0.03 0.04 0.04 0.05 0.07 0.06 0.06 0.06 0.08 0.09 0.09 0.11 0.12 0.10 0.09 0.08 0.08 0.06 0.05 0.03 0.02 0.01 0.02 0.03 0.03 0.03 0.04
0.02 0.03 0.04 0.06 0.07 0.08 0.07 0.06 0.04 0.04 0.03 0.03 0.03 0.04 0.04 0.04 0.05 0.04 0.04 0.05 0.06 0.07 0.07 0.09 0.10 0.10 0.09 0.12 0.12 0.12 0.12 0.11 0.09 0.08 0.08 0.06 0.03 0.02 0.02 0.02 0.02 0.02 0.02
0.01 0.02 0.04 0.06 0.08 0.08 0.07 0.07 0.06 0.06 0.05 0.04 0.04 0.05 0.04 0.03 0.03 0.04 0.04 0.04 0.05 0.07 0.06 0.08 0.12 0.13 0.10 0.12 0.13 0.13 0.12 0.12 0.10 0.08 0.08 0.08 0.06 0.05 0.03 0.01 0.01 0.02 0.02
0.02 0.03 0.04 0.08 0.10 0.09 0.10 0.10 0.07 0.06 0.06 0.06 0.06 0.05 0.04 0.03 0.04 0.04 0.04 0.05 0.06 0.07 0.06 0.06 0.09 0.10 0.09 0.08 0.10 0.12 0.12 0.12 0.11 0.10 0.09 0.09 0.09 0.08 0.07 0.04 0.03 0.02 0.03
0.03 0.03 0.04 0.05 0.05 0.07 0.10 0.12 0.09 0.08 0.08 0.07 0.06 0.06 0.05 0.04 0.04 0.04 0.05 0.06 0.06 0.06 0.06 0.06 0.08 0.09 0.09 0.08 0.07 0.08 0.12 0.13 0.13 0.10 0.08 0.09 0.09 0.09 0.08 0.06 0.04 0.03 0.03
0.04 0.03 0.04 0.04 0.03 0.04 0.06 0.08 0.09 0.08 0.08 0.08 0.08 0.07 0.06 0.05 0.05 0.04 0.05 0.07 0.08 0.07 0.06 0.07 0.08 0.08 0.09 0.09 0.08 0.08 0.07 0.08 0.10 0.11 0.09 0.08 0.09 0.07 0.07 0.07 0.06 0.05 0.05
MSLP
1008.42 1008.46 1008.69 1009.08 1009.59 1010.15 1010.71 1011.21 1011.63 1011.98 1012.27 1012.54 1012.82 1013.13 1013.47 1013.83 1014.18 1014.50 1014.76 1014.97 1015.13 1015.25 1015.37 1015.50 1015.63 1015.79 1015.93 1016.05 1016.12 1016.13 1016.08 1015.99 1015.89 1015.80 1015.75 1015.75 1015.79 1015.88 1015.98 1016.08 1016.17 1016.24 1016.31
1008.29 1008.46 1008.80 1009.29 1009.86 1010.44 1010.98 1011.45 1011.83 1012.14 1012.42 1012.72 1013.04 1013.41 1013.82 1014.22 1014.60 1014.90 1015.13 1015.28 1015.37 1015.44 1015.52 1015.62 1015.76 1015.92 1016.08 1016.20 1016.26 1016.24 1016.15 1016.00 1015.85 1015.71 1015.63 1015.61 1015.65 1015.75 1015.88 1016.01 1016.14 1016.26 1016.37
1008.11 1008.40 1008.87 1009.45 1010.08 1010.69 1011.23 1011.67 1012.02 1012.31 1012.59 1012.89 1013.24 1013.65 1014.08 1014.50 1014.86 1015.13 1015.31 1015.40 1015.44 1015.47 1015.53 1015.64 1015.80 1015.99 1016.17 1016.30 1016.35 1016.31 1016.18 1016.00 1015.80 1015.64 1015.53 1015.51 1015.56 1015.68 1015.83 1016.00 1016.18 1016.34 1016.49
1007.91 1008.33 1008.90 1009.56 1010.25 1010.89 1011.44 1011.86 1012.19 1012.46 1012.73 1013.04 1013.40 1013.82 1014.25 1014.66 1014.99 1015.23 1015.35 1015.40 1015.41 1015.42 1015.49 1015.62 1015.81 1016.03 1016.24 1016.38 1016.43 1016.37 1016.22 1016.01 1015.79 1015.62 1015.51 1015.49 1015.56 1015.70 1015.88 1016.08 1016.28 1016.47 1016.65
1007.79 1008.29 1008.94 1009.68 1010.41 1011.07 1011.61 1012.03 1012.34 1012.59 1012.85 1013.16 1013.52 1013.94 1014.36 1014.75 1015.05 1015.25 1015.35 1015.37 1015.37 1015.40 1015.49 1015.65 1015.87 1016.11 1016.33 1016.47 1016.51 1016.44 1016.28 1016.06 1015.85 1015.68 1015.60 1015.60 1015.69 1015.84 1016.03 1016.23 1016.44 1016.63 1016.81
1007.81 1008.36 1009.06 1009.83 1010.58 1011.24 1011.77 1012.16 1012.45 1012.69 1012.94 1013.24 1013.61 1014.01 1014.43 1014.80 1015.09 1015.28 1015.37 1015.40 1015.41 1015.46 1015.58 1015.77 1016.01 1016.26 1016.47 1016.60 1016.61 1016.53 1016.36 1016.16 1015.97 1015.84 1015.79 1015.83 1015.94 1016.10 1016.28 1016.46 1016.63 1016.79 1016.93
1008.02 1008.58 1009.28 1010.04 1010.77 1011.40 1011.90 1012.26 1012.53 1012.75 1013.00 1013.29 1013.66 1014.06 1014.48 1014.85 1015.14 1015.33 1015.44 1015.49 1015.54 1015.63 1015.77 1015.98 1016.22 1016.45 1016.63 1016.72 1016.71 1016.60 1016.44 1016.27 1016.13 1016.06 1016.07 1016.16 1016.29 1016.45 1016.61 1016.74 1016.85 1016.93 1017.00
1008.41 1008.94 1009.59 1010.30 1010.98 1011.56 1012.00 1012.32 1012.56 1012.77 1013.00 1013.30 1013.66 1014.08 1014.49 1014.87 1015.17 1015.39 1015.53 1015.62 1015.71 1015.84 1016.01 1016.22 1016.44 1016.64 1016.76 1016.80 1016.75 1016.63 1016.49 1016.36 1016.28 1016.29 1016.38 1016.53 1016.70 1016.86 1016.98 1017.05 1017.07 1017.06 1017.04
1008.94 1009.39 1009.97 1010.59 1011.18 1011.67 1012.05 1012.32 1012.52 1012.71 1012.94 1013.24 1013.61 1014.03 1014.45 1014.83 1015.15 1015.39 1015.57 1015.70 1015.84 1015.99 1016.18 1016.39 1016.58 1016.73 1016.80 1016.79 1016.71 1016.58 1016.45 1016.38 1016.39 1016.49 1016.67 1016.89 1017.10 1017.26 1017.35 1017.35 1017.29 1017.18 1017.06
1009.50 1009.86 1010.33 1010.85 1011.33 1011.72 1012.02 1012.24 1012.41 1012.58 1012.81 1013.11 1013.48 1013.89 1014.30 1014.69 1015.01 1015.27 1015.47 1015.65 1015.82 1016.01 1016.21 1016.41 1016.58 1016.69 1016.71 1016.66 1016.55 1016.43 1016.34 1016.33 1016.42 1016.62 1016.89 1017.18 1017.44 1017.61 1017.68 1017.64 1017.50 1017.32 1017.12
1010.01 1010.28 1010.64 1011.03 1011.39 1011.68 1011.90 1012.07 1012.21 1012.38 1012.60 1012.90 1013.26 1013.65 1014.05 1014.41 1014.72 1014.99 1015.20 1015.41 1015.61 1015.83 1016.05 1016.26 1016.41 1016.50 1016.50 1016.42 1016.31 1016.21 1016.16 1016.22 1016.39 1016.67 1017.02 1017.38 1017.68 1017.88 1017.94 1017.87 1017.70 1017.47 1017.22
1010.40 1010.58 1010.83 1011.10 1011.35 1011.55 1011.71 1011.83 1011.96 1012.12 1012.34 1012.63 1012.97 1013.34 1013.70 1014.02 1014.31 1014.55 1014.77 1014.99 1015.22 1015.47 1015.72 1015.95 1016.12 1016.21 1016.21 1016.14 1016.05 1015.97 1015.97 1016.08 1016.32 1016.66 1017.07 1017.47 1017.81 1018.02 1018.10 1018.03 1017.86 1017.62 1017.37
1010.63 1010.74 1010.90 1011.07 1011.22 1011.35 1011.45 1011.55 1011.68 1011.85 1012.07 1012.36 1012.67 1013.00 1013.30 1013.58 1013.82 1014.03 1014.24 1014.47 1014.73 1015.01 1015.30 1015.57 1015.78 1015.90 1015.94 1015.90 1015.84 1015.81 1015.84 1015.99 1016.26 1016.63 1017.05 1017.47 1017.82 1018.05 1018.14 1018.10 1017.96 1017.75 1017.54
1010.72 1010.78 1010.86 1010.95 1011.03 1011.11 1011.19 1011.29 1011.43 1011.61 1011.85 1012.12 1012.41 1012.69 1012.94 1013.16 1013.35 1013.53 1013.73 1013.97 1014.25 1014.58 1014.92 1015.23 1015.49 1015.67 1015.76 1015.78 1015.76 1015.76 1015.82 1015.98 1016.24 1016.60 1017.00 1017.39 1017.72 1017.95 1018.06 1018.05 1017.96 1017.82 1017.67
1010.70 1010.72 1010.74 1010.77 1010.81 1010.87 1010.95 1011.08 1011.25 1011.46 1011.72 1011.99 1012.25 1012.49 1012.69 1012.85 1013.00 1013.15 1013.34 1013.59 1013.90 1014.27 1014.65 1015.03 1015.35 1015.59 1015.73 1015.80 1015.83 1015.86 1015.93 1016.07 1016.30 1016.60 1016.93 1017.26 1017.54 1017.75 1017.86 1017.88 1017.85 1017.78 1017.71
1010.61 1010.59 1010.58 1010.58 1010.60 1010.67 1010.78 1010.95 1011.17 1011.43 1011.71 1011.98 1012.22 1012.42 1012.58 1012.70 1012.82 1012.96 1013.15 1013.41 1013.75 1014.15 1014.58 1015.00 1015.36 1015.65 1015.85 1015.97 1016.03 1016.08 1016.14 1016.25 1016.41 1016.63 1016.87 1017.10 1017.31 1017.46 1017.55 1017.60 1017.61 1017.61 1017.63
1010.48 1010.43 1010.38 1010.37 1010.41 1010.50 1010.67 1010.90 1011.18 1011.49 1011.80 1012.08 1012.31 1012.49 1012.61 1012.71 1012.81 1012.94 1013.14 1013.42 1013.79 1014.21 1014.66 1015.11 1015.51 1015.82 1016.05 1016.20 1016.29 1016.34 1016.39 1016.45 1016.55 1016.67 1016.80 1016.93 1017.04 1017.13 1017.19 1017.23 1017.28 1017.34 1017.42
1010.33 1010.24 1010.17 1010.16 1010.22 1010.37 1010.60 1010.91 1011.26 1011.62 1011.96 1012.25 1012.47 1012.63 1012.74 1012.82 1012.92 1013.06 1013.27 1013.57 1013.95 1014.39 1014.84 1015.29 1015.68 1016.01 1016.25 1016.41 1016.51 1016.56 1016.60 1016.63 1016.66 1016.70 1016.73 1016.76 1016.77 1016.79 1016.80 1016.84 1016.90 1017.00 1017.13
1010.16 1010.03 1009.94 1009.94 1010.03 1010.24 1010.55 1010.93 1011.35 1011.76 1012.13 1012.42 1012.64 1012.79 1012.88 1012.96 1013.06 1013.22 1013.46 1013.77 1014.16 1014.58 1015.03 1015.45 1015.82 1016.12 1016.35 1016.51 1016.62 1016.68 1016.72 1016.73 1016.73 1016.70 1016.66 1016.60 1016.54 1016.48 1016.45 1016.46 1016.53 1016.64 1016.80
1009.98 1009.80 1009.70 1009.70 1009.83 1010.10 1010.48 1010.93 1011.41 1011.87 1012.26 1012.56 1012.76 1012.89 1012.98 1013.06 1013.17 1013.35 1013.60 1013.93 1014.31 1014.72 1015.13 1015.51 1015.85 1016.12 1016.32 1016.48 1016.60 1016.68 1016.73 1016.75 1016.74 1016.69 1016.61 1016.49 1016.37 1016.26 1016.18 1016.16 1016.20 1016.32 1016.49
1009.79 1009.58 1009.45 1009.47 1009.64 1009.96 1010.40 1010.91 1011.44 1011.92 1012.32 1012.61 1012.80 1012.92 1013.00 1013.08 1013.20 1013.40 1013.67 1014.00 1014.38 1014.77 1015.14 1015.48 1015.76 1015.99 1016.18 1016.33 1016.46 1016.57 1016.66 1016.71 1016.72 1016.68 1016.58 1016.44 1016.28 1016.12 1016.00 1015.94 1015.96 1016.07 1016.24
1009.64 1009.40 1009.26 1009.27 1009.47 1009.83 1010.31 1010.86 1011.42 1011.92 1012.32 1012.60 1012.77 1012.88 1012.94 1013.03 1013.17 1013.37 1013.66 1014.00 1014.37 1014.74 1015.08 1015.37 1015.62 1015.81 1015.98 1016.14 1016.29 1016.43 1016.56 1016.66 1016.71 1016.69 1016.61 1016.46 1016.28 1016.08 1015.92 1015.82 1015.81 1015.88 1016.03
1009.57 1009.30 1009.15 1009.17 1009.37 1009.74 1010.25 1010.82 1011.39 1011.89 1012.28 1012.55 1012.72 1012.80 1012.87 1012.96 1013.10 1013.32 1013.62 1013.97 1014.33 1014.69 1015.00 1015.27 1015.48 1015.66 1015.81 1015.97 1016.14 1016.32 1016.50 1016.65 1016.74 1016.76 1016.69 1016.55 1016.35 1016.13 1015.92 1015.78 1015.72 1015.75 1015.87
1009.61 1009.35 1009.19 1009.19 1009.38 1009.75 1010.25 1010.81 1011.37 1011.87 1012.25 1012.52 1012.68 1012.77 1012.84 1012.93 1013.09 1013.32 1013.62 1013.97 1014.34 1014.68 1014.98 1015.23 1015.42 1015.59 1015.74 1015.91 1016.09 1016.30 1016.51 1016.69 1016.82 1016.87 1016.82 1016.67 1016.46 1016.21 1015.97 1015.77 1015.65 1015.63 1015.70
1009.80 1009.54 1009.38 1009.36 1009.52 1009.85 1010.32 1010.85 1011.39 1011.88 1012.26 1012.53 1012.70 1012.80 1012.89 1013.00 1013.17 1013.41 1013.72 1014.07 1014.42 1014.76 1015.05 1015.28 1015.47 1015.63 1015.78 1015.95 1016.15 1016.36 1016.59 1016.79 1016.93 1016.99 1016.95 1016.80 1016.58 1016.30 1016.01 1015.76 1015.57 1015.48 1015.49
1010.12 1009.88 1009.71 1009.66 1009.77 1010.05 1010.46 1010.95 1011.46 1011.93 1012.31 1012.60 1012.79 1012.92 1013.04 1013.17 1013.36 1013.60 1013.91 1014.25 1014.59 1014.91 1015.19 1015.42 1015.60 1015.75 1015.90 1016.06 1016.25 1016.47 1016.69 1016.88 1017.03 1017.09 1017.04 1016.89 1016.66 1016.35 1016.03 1015.72 1015.47 1015.31 1015.24
Thickness
5818 5815 5808 5804 5800 5796 5793 5790 5788 5785 5783 5780 5778 5776 5774 5773 5771 5770 5768 5768 5767 5765 5764 5763 5762 5760 5759 5758 5757 5757 5756 5755 5755 5754 5754 5752 5751 5750 5749 5747 5746 5745 5743
5818 5812 5806 5801 5797 5793 5789 5786 5784 5781 5779 5777 5774 5772 5771 5769 5768 5766 5765 5764 5763 5762 5761 5760 5759 5758 5757 5756 5755 5754 5753 5753 5752 5751 5751 5750 5749 5747 5746 5745 5744 5742 5740
5816 5809 5802 5797 5793 5789 5786 5782 5780 5778 5775 5773 5771 5769 5768 5766 5764 5763 5761 5760 5759 5758 5757 5756 5755 5755 5754 5753 5752 5752 5751 5750 5749 5749 5749 5748 5747 5745 5744 5743 5742 5740 5738
5814 5806 5800 5793 5790 5786 5782 5779 5777 5774 5772 5770 5768 5766 5765 5763 5761 5759 5758 5757 5756 5755 5754 5753 5752 5752 5751 5751 5750 5749 5749 5748 5747 5747 5747 5748 5747 5744 5742 5740 5739 5738 5737
5810 5803 5795 5790 5786 5783 5779 5776 5773 5771 5769 5767 5765 5763 5762 5760 5758 5756 5755 5754 5753 5752 5751 5750 5749 5748 5748 5748 5748 5747 5746 5746 5745 5745 5746 5746 5745 5743 5741 5739 5737 5736 5734
5806 5801 5792 5787 5783 5779 5776 5772 5770 5767 5765 5764 5762 5760 5759 5757 5755 5754 5752 5751 5750 5749 5748 5747 5746 5746 5745 5745 5745 5744 5744 5743 5743 5744 5745 5745 5744 5742 5740 5738 5736 5734 5732
5803 5796 5788 5784 5781 5776 5772 5769 5766 5763 5761 5760 5758 5757 5756 5754 5752 5751 5750 5749 5747 5746 5745 5744 5744 5743 5742 5742 5742 5742 5741 5741 5742 5743 5744 5744 5743 5741 5739 5736 5734 5732 5730
5799 5790 5783 5780 5777 5773 5769 5766 5762 5760 5758 5756 5755 5754 5752 5751 5749 5748 5747 5746 5745 5744 5742 5742 5741 5740 5739 5739 5739 5738 5738 5739 5741 5743 5743 5742 5741 5739 5736 5734 5731 5730 5728
5795 5787 5782 5777 5772 5769 5766 5762 5760 5757 5755 5753 5751 5750 5749 5748 5746 5744 5743 5743 5743 5742 5740 5739 5739 5738 5737 5737 5736 5737 5736 5737 5738 5740 5741 5741 5739 5737 5734 5731 5730 5728 5727
5788 5783 5780 5775 5770 5766 5763 5760 5758 5755 5752 5751 5749 5747 5746 5744 5743 5742 5741 5740 5739 5739 5738 5737 5737 5736 5735 5735 5735 5735 5735 5735 5737 5738 5739 5738 5737 5735 5733 5730 5728 5727 5726
5780 5778 5775 5770 5767 5765 5762 5758 5755 5752 5750 5748 5746 5744 5743 5742 5741 5740 5739 5737 5736 5735 5735 5735 5734 5734 5734 5734 5734 5734 5734 5734 5735 5736 5737 5736 5735 5732 5730 5728 5727 5725 5724
5772 5772 5772 5768 5765 5763 5761 5756 5752 5750 5747 5745 5744 5742 5740 5740 5739 5739 5738 5735 5734 5733 5733 5733 5733 5733 5733 5733 5733 5733 5733 5734 5735 5735 5735 5734 5733 5730 5728 5727 5725 5723 5721
5770 5769 5768 5766 5762 5760 5757 5753 5750 5747 5745 5743 5743 5741 5738 5738 5737 5736 5735 5733 5732 5732 5732 5732 5731 5732 5733 5734 5734 5733 5733 5734 5734 5734 5733 5732 5730 5728 5727 5725 5723 5721 5719
5766 5763 5764 5762 5758 5754 5752 5749 5746 5744 5742 5741 5739 5738 5736 5735 5735 5734 5733 5732 5731 5731 5731 5732 5731 5731 5733 5734 5734 5733 5733 5732 5732 5731 5730 5729 5727 5726 5724 5722 5721 5719 5717
5761 5759 5759 5757 5752 5750 5747 5744 5743 5740 5739 5738 5737 5735 5733 5731 5730 5730 5729 5729 5729 5729 5728 5728 5728 5729 5730 5731 5732 5731 5730 5730 5730 5728 5726 5725 5724 5723 5721 5720 5718 5717 5715
5758 5755 5754 5751 5748 5746 5742 5739 5738 5737 5736 5735 5733 5731 5729 5728 5726 5725 5724 5724 5725 5724 5724 5724 5724 5724 5725 5726 5727 5727 5727 5726 5726 5724 5722 5721 5720 5719 5718 5717 5716 5715 5713
5755 5753 5750 5748 5745 5742 5739 5736 5736 5734 5732 5731 5729 5727 5726 5725 5723 5721 5720 5720 5720 5720 5719 5720 5719 5719 5719 5721 5721 5722 5722 5722 5722 5720 5719 5718 5716 5715 5714 5713 5713 5712 5711
5753 5749 5747 5746 5742 5738 5735 5733 5732 5732 5730 5728 5726 5725 5723 5721 5719 5717 5715 5715 5715 5715 5715 5714 5713 5712 5712 5713 5714 5716 5717 5718 5717 5716 5716 5715 5714 5713 5712 5711 5710 5709 5709
5750 5747 5743 5742 5738 5735 5732 5730 5728 5728 5726 5725 5723 5721 5719 5717 5715 5713 5712 5711 5710 5710 5709 5709 5708 5706 5705 5706 5708 5710 5711 5712 5712 5713 5712 5711 5711 5711 5710 5708 5707 5706 5706
5747 5744 5740 5738 5735 5732 5729 5726 5724 5723 5722 5721 5719 5718 5716 5714 5711 5709 5708 5707 5706 5704 5703 5703 5701 5701 5700 5700 5701 5703 5705 5706 5708 5708 5707 5708 5708 5708 5707 5706 5705 5703 5703
5743 5739 5736 5733 5730 5728 5724 5721 5718 5717 5717 5716 5716 5714 5712 5710 5708 5705 5704 5702 5701 5699 5699 5699 5696 5695 5694 5695 5692 5693 5697 5701 5702 5702 5702 5702 5702 5704 5703 5703 5703 5701 5700
5739 5736 5733 5730 5727 5724 5721 5718 5716 5715 5714 5714 5712 5709 5708 5706 5704 5703 5700 5699 5697 5695 5694 5693 5691 5688 5688 5689 5685 5682 5683 5687 5692 5696 5695 5695 5697 5699 5700 5700 5700 5699 5698
5735 5732 5730 5726 5723 5721 5718 5715 5713 5712 5710 5708 5707 5706 5705 5703 5702 5700 5698 5696 5694 5691 5689 5688 5686 5683 5681 5682 5682 5678 5675 5675 5681 5686 5688 5690 5692 5693 5695 5696 5696 5696 5695
5733 5731 5727 5723 5719 5717 5714 5710 5707 5704 5702 5703 5703 5702 5701 5700 5698 5696 5694 5692 5690 5687 5685 5684 5683 5680 5677 5674 5676 5677 5676 5676 5671 5673 5679 5684 5686 5688 5689 5691 5691 5691 5691
5733 5729 5725 5720 5716 5713 5710 5707 5703 5702 5701 5701 5700 5698 5696 5695 5694 5692 5690 5688 5685 5682 5680 5679 5676 5674 5672 5670 5669 5670 5670 5671 5671 5667 5667 5672 5677 5681 5684 5685 5686 5686 5686
5731 5727 5722 5717 5712 5710 5706 5703 5700 5698 5697 5695 5693 5691 5690 5689 5688 5687 5685 5682 5679 5677 5675 5673 5672 5669 5667 5665 5665 5664 5664 5663 5664 5663 5662 5664 5667 5673 5678 5680 5680 5680 5680